User: anonymous   Login
Location: Cruquius
(52.3348°N, 4.6319°E)
Time: 16:12:48
(UTC+00:00)
Language:

Iridium 4 Rocket - Orbit

View from above orbital plane
View from above orbital plane
View from above satellite
View from above satellite

Ground track
Ground track

The orbit data is extracted from the following two-line orbital elements,

1 24797U 97020F   21208.40152546  .00000191  00000-0  35751-4 0  9993
2 24797  86.9002 163.5593 0224487 351.7125 118.3544 14.44262458274592
Epoch (UTC): 27 July 2021 09:38:11
Eccentricity: 0.0224487
inclination: 86.9002°
perigee height: 584 km
apogee height: 904 km
right ascension of ascending node: 163.5593°
argument of perigee: 351.7125°
revolutions per day: 14.44262458
mean anomaly at epoch: 118.3544°
orbit number at epoch: 27459

The dashed part of the orbit path shows where the satellite is in the earth's shadow,  

DLR